User: anonymous   Login
Location: Barcelona
(41.3829°N, 2.1774°E)
Time: 13:30:41
(UTC+00:00)
Language:

ISS - Orbit

View from above orbital plane
View from above orbital plane
View from above satellite
View from above satellite

Ground track
Ground track

The orbit data is extracted from the following two-line orbital elements,

1 25544U 98067A   24206.17447642  .00018729  00000-0  33234-3 0  9994
2 25544  51.6396 132.0915 0010235 100.4061  47.5829 15.50212042464287
Epoch (UTC): 24 July 2024 04:11:14
Eccentricity: 0.0010235
inclination: 51.6396°
perigee height: 409 km
apogee height: 423 km
right ascension of ascending node: 132.0915°
argument of perigee: 100.4061°
revolutions per day: 15.50212042
mean anomaly at epoch: 47.5829°
orbit number at epoch: 46428

The dashed part of the orbit path shows where the satellite is in the earth's shadow,  

DLR